This is the latest recevied weather packets stored in our database for station/object N2XP. If no packets are shown the sender has not sent any weather packets the latest 10 day(s).
| Time | Temp. | Humidity | Pressure | Rain* | Wind** | Luminosity | Snow |
|---|---|---|---|---|---|---|---|
| 1777948245 | 12.78° C | 70% | 1008.7 hPa | 0 mm | - | - | - |
| 1777947344 | 12.78° C | 68% | 1008.8 hPa | 0 mm | - | - | - |
| 1777946438 | 13.33° C | 66% | 1008.7 hPa | 0 mm | - | - | - |
| 1777945542 | 13.89° C | 66% | 1008.6 hPa | 0 mm | - | - | - |
| 1777944636 | 13.89° C | 64% | 1008.6 hPa | 0 mm | - | - | - |
| 1777943736 | 14.44° C | 63% | 1008.5 hPa | 0 mm | - | - | - |
| 1777942841 | 15° C | 60% | 1008.2 hPa | 0 mm | - | - | - |
| 1777941935 | 15.56° C | 58% | 1008.2 hPa | 0 mm | - | - | - |
| 1777941033 | 16.11° C | 56% | 1008 hPa | 0 mm | - | - | - |
| 1777940146 | 17.22° C | 53% | 1007.9 hPa | 0 mm | - | - | - |
| 1777939240 | 17.78° C | 51% | 1007.6 hPa | 0 mm | - | - | - |
| 1777938333 | 18.33° C | 50% | 1007.4 hPa | 0 mm | - | - | - |
| 1777937431 | 18.33° C | 48% | 1007.2 hPa | 0 mm | - | - | - |
| 1777936541 | 18.89° C | 46% | 1007 hPa | 0 mm | - | - | - |
| 1777935630 | 19.44° C | 45% | 1006.9 hPa | 0 mm | - | - | - |
| 1777934735 | 20° C | 46% | 1006.8 hPa | 0 mm | - | - | - |
| 1777933828 | 20° C | 43% | 1007 hPa | 0 mm | - | - | - |
| 1777932928 | 20.56° C | 42% | 1006.9 hPa | 0 mm | - | - | - |
| 1777932030 | 20.56° C | 43% | 1007 hPa | 0 mm | - | - | - |
| 1777931125 | 20.56° C | 42% | 1007.1 hPa | 0 mm | - | - | - |
| 1777930224 | 20.56° C | 42% | 1007.3 hPa | 0 mm | - | - | - |
| 1777929327 | 21.11° C | 41% | 1007.3 hPa | 0 mm | - | - | - |
| 1777928425 | 21.11° C | 39% | 1007.4 hPa | 0 mm | - | - | - |
| 1777927523 | 21.11° C | 44% | 1007.4 hPa | 0 mm | - | - | - |
| 1777926626 | 21.11° C | 42% | 1007.4 hPa | 0 mm | - | - | - |
* Rain latest hour (hover to see other rain measurements)
** Current wind speed in m/s (hover to see current wind gust speed)